Regional Weather Roundup
Issued by NWS

Home | Current Version | Previous Version | Graphics & Text | Print | Product List | Glossary On
Versions: 1 2 3 4 5 6 7 8 9 10 11 12 13 14 15 16 17 18 19 20 21 22 23 24 25 26 27 28 29 30 31 32 33 34 35 36 37 38 39 40 41 42 43 44 45 46 47 48 49 50
000
ASUS45 KCYS 200310
RWRWY

WYOMING REGIONAL WEATHER ROUNDUP
NATIONAL WEATHER SERVICE CHEYENNE WY
900 PM MDT THU OCT 19 2017

NOTE:  "FAIR" INDICATES FEW OR NO CLOUDS BELOW 12,000 FEET
WITH NO SIGNIFICANT WEATHER AND/OR OBSTRUCTIONS TO VISIBILITY.

WYZ001-200400-
YELLOWSTONE NATIONAL PARK

CITY           SKY/WX    TMP DP  RH WIND       PRES   REMARKS
LK YELLOWSTONE   N/A     30  22  72 NW3       29.94F
W YELLOWSTONE  NOT AVBL

$$
WYZ002>013-054>058-071-098>099-200400-
NORTHERN WYOMING

CITY           SKY/WX    TMP DP  RH WIND       PRES   REMARKS
JACKSON        FAIR      40  16  37 CALM      29.88F
CODY           FAIR      59  14  17 SW8       29.75F
GREYBULL       FAIR      57  21  24 SE6       29.69F
WORLAND        FAIR      46  22  38 SE7       29.71F
SHERIDAN       FAIR      53  26  35 S7        29.65F
BUFFALO        FAIR      60   7  12 SW8       29.73F
GILLETTE       FAIR      66  11  11 S24       29.70F
HULETT         FAIR      68  19  15 SW15      29.73F
NEWCASTLE      FAIR      59  19  21 SE10      29.78F

$$
WYZ014>020-022>026-101>103-200400-
CENTRAL WYOMING

CITY           SKY/WX    TMP DP  RH WIND       PRES   REMARKS
BIG PINEY      FAIR      38  15  39 E3        29.94F
PINEDALE       FAIR      37  18  44 CALM      29.97S
DUBOIS         FAIR      41  14  33 NW9       29.90F
LANDER         FAIR      56  17  21 VRB5      29.80F
RIVERTON       FAIR      56  20  24 SW8       29.81F
CASPER         FAIR      48  21  34 W9        29.84S
DOUGLAS        FAIR      51  26  37 SE5       29.84F

$$
WYZ021-027>030-104>119-200400-
SOUTHERN WYOMING

CITY           SKY/WX    TMP DP  RH WIND       PRES   REMARKS
EVANSTON       MOCLDY    54  28  36 S8        29.96F
KEMMERER       FAIR      52  10  19 SW3       29.97S
FORT BRIDGER   CLOUDY    56  24  30 SW9       29.98S
ROCK SPRINGS   FAIR      55  22  27 S8        29.94F
DIXON          FAIR      48  26  42 CALM      30.01F
RAWLINS        FAIR      50  26  39 W7        29.97F
SARATOGA       FAIR      46  27  46 S9        30.00F
LARAMIE        FAIR      49  21  33 SW6       30.01S
CHEYENNE       FAIR      48  29  47 W8        29.94F
TORRINGTON     FAIR      57  25  29 SE5       29.81F
PINE BLUFFS    FAIR      52  30  43 SW6       29.91S

$$



USA.gov is the U.S. government's official web portal to all federal, state and local government web resources and services.